sat.trackr.live / text

‹ back to catalog

STARLINK-35260

NORAD 65751 · 2025-216T

PAYLOAD ACTIVE UNKNOWN

§ Identity

Operator
Country
US
Launch date
2025-09-25
Launch site
AFETR
Launch vehicle
Mass (kg)
RCS (m²)

Purposes: comms

External: N2YO · Heavens-Above · Gunter

§ Orbital elements

Epoch: 2026-05-24T22:58:03.415872Z

Period
94.10 min
Inclination
53.1597°
Eccentricity
0.0001005
Mean motion
15.30211865 rev/d
Perigee alt
474.5 km
Apogee alt
475.9 km
Semi-major
6,853.3 km
B*
5.9171e-4
RAAN
338.4088°
Arg perigee
84.3591°
Mean anomaly
275.7524°
Rev number
3,822

§ Raw data

STARLINK-352601 65751U 25216T   26144.95698398  .00017213  00000+0  59171-3 0  99932 65751  53.1597 338.4088 0001005  84.3591 275.7524 15.30211865 38225

JSON: /api/v1/satellites/65751 · /tle

For live sub-satellite position, see the globe view (requires WebGL).

§ Visibility from observer

Set your observer location to see the next 7 days of passes ≥ 10°. The values pass through the URL so the page stays shareable.

No JS? Fill the form by hand. The geolocation button needs JavaScript.